This is the latest recevied weather packets stored in our database for station/object OK2JV-13. If no packets are shown the sender has not sent any weather packets the latest 10 day(s).
| Time | Temp. | Humidity | Pressure | Rain* | Wind** | Luminosity | Snow |
|---|---|---|---|---|---|---|---|
| 1787475990 | 17.78° C | 55% | 1019.1 hPa | - | - | - | - |
| 1787475388 | 17.78° C | 55% | 1019.1 hPa | - | - | - | - |
| 1787474782 | 17.78° C | 55% | 1019.1 hPa | - | - | - | - |
| 1787474177 | 17.78° C | 59% | 1019.2 hPa | - | - | - | - |
| 1787473573 | 17.22° C | 63% | 1019.1 hPa | - | - | - | - |
| 1787472969 | 16.67° C | 65% | 1019 hPa | - | - | - | - |
| 1787472365 | 15.56° C | 71% | 1019.1 hPa | - | - | - | - |
| 1787471760 | 15° C | 73% | 1019 hPa | - | - | - | - |
| 1787471156 | 13.33° C | 77% | 1019 hPa | - | - | - | - |
| 1787470552 | 12.78° C | 78% | 1019 hPa | - | - | - | - |
| 1787469948 | 12.22° C | 82% | 1019.1 hPa | - | - | - | - |
| 1787469344 | 12.22° C | 84% | 1019 hPa | - | - | - | - |
| 1787468741 | 11.67° C | 85% | 1018.9 hPa | - | - | - | - |
| 1787468136 | 11.67° C | 86% | 1018.9 hPa | - | - | - | - |
| 1787467532 | 11.11° C | 88% | 1018.8 hPa | - | - | - | - |
| 1787466928 | 11.11° C | 90% | 1018.8 hPa | - | - | - | - |
| 1787466325 | 10.56° C | 90% | 1018.8 hPa | - | - | - | - |
| 1787465720 | 10.56° C | 91% | 1018.7 hPa | - | - | - | - |
| 1787465117 | 10° C | 92% | 1018.6 hPa | - | - | - | - |
| 1787464513 | 9.44° C | 92% | 1018.7 hPa | - | - | - | - |
| 1787463909 | 9.44° C | 92% | 1018.5 hPa | - | - | - | - |
| 1787463305 | 8.89° C | 91% | 1018.4 hPa | - | - | - | - |
| 1787462701 | 8.89° C | 91% | 1018.3 hPa | - | - | - | - |
| 1787462097 | 8.33° C | 90% | 1018.4 hPa | - | - | - | - |
| 1787461490 | 8.33° C | 89% | 1018.2 hPa | - | - | - | - |
* Rain since midnight (hover to see other rain measurements)
** Current wind speed in m/s (hover to see current wind gust speed)